User: anonymous   Login
Location: Unspecified
(0.0000°N, 0.0000°E)
Time: 14:34:23
(UTC+00:00)
Language:

PAYLOAD C - Orbit

View from above orbital plane
View from above orbital plane
View from above satellite
View from above satellite

Ground track
Ground track

The orbit data is extracted from the following two-line orbital elements,

1 27057U 01058C   18267.71323249 +.00000031 +00000-0 +11378-3 0  9997
2 27057 082.5427 220.9586 0001530 032.8579 086.8277 12.61548442770959
Epoch (UTC): 24 September 2018 17:07:03
Eccentricity: 0.0001530
inclination: 82.5427°
perigee height: 1415 km
apogee height: 1418 km
right ascension of ascending node: 220.9586°
argument of perigee: 32.8579°
revolutions per day: 12.61548442
mean anomaly at epoch: 86.8277°
orbit number at epoch: 77095

The dashed part of the orbit path shows where the satellite is in the earth's shadow,  

DLR